Dewpoint
74 75 76 71 71 71 67 67 67 64 62 64 66 68 69 69 72 72 72 71 71 71 71 70 70 71 71 72 72 72 72 71 71 71 72 73 73 74
77 75 76 72 71 71 69 70 71 69 65 62 64 67 70 71 72 72 72 72 72 71 71 70 70 70 70 71 71 71 71 71 70 71 71 71 72 73
76 76 74 76 69 67 67 66 70 70 68 66 68 70 73 73 72 73 72 71 70 70 70 70 70 70 70 70 70 70 71 70 70 70 71 71 71 72
75 74 72 69 70 68 64 68 66 71 71 69 70 68 71 74 74 73 72 69 68 69 70 69 69 68 68 68 68 68 67 68 69 69 70 70 70 71
75 73 69 69 68 64 64 61 59 61 61 62 63 64 65 67 71 72 71 70 69 71 69 68 68 68 67 66 66 65 64 64 65 66 67 68 69 70
75 68 67 67 66 66 66 66 64 62 61 57 57 58 61 65 66 68 68 67 66 65 69 68 69 68 67 66 65 65 63 62 62 63 64 65 66 68
68 67 66 67 64 66 60 64 66 61 56 55 54 54 56 58 61 61 62 64 68 67 65 65 66 68 69 67 68 68 65 64 62 62 62 63 64 65
65 66 65 67 66 65 64 64 64 64 64 58 57 57 63 61 59 57 57 56 56 63 69 69 73 70 75 74 67 66 66 64 63 62 62 62 62 62
65 63 59 55 62 64 65 64 63 63 62 63 63 62 63 64 64 62 61 59 58 57 61 61 66 66 69 69 67 66 65 64 63 63 62 61 61 61
62 62 63 62 63 64 63 61 61 62 62 61 62 62 62 61 61 61 61 61 58 56 62 56 60 65 65 66 66 66 65 64 63 63 62 59 58 58
64 64 63 63 60 60 62 61 62 61 59 61 60 58 57 57 57 55 53 51 49 48 51 50 52 58 61 65 70 66 64 62 62 62 62 60 57 57
64 64 60 60 55 55 59 61 61 60 61 61 60 59 60 59 59 61 57 53 51 48 52 50 50 52 52 54 61 65 68 61 59 60 60 60 57 63
59 59 59 54 53 53 53 56 57 55 57 55 53 52 52 51 49 50 53 51 50 49 52 52 48 50 51 52 53 62 68 70 69 65 56 56 55 61
60 58 59 52 52 53 53 53 53 53 50 48 48 47 49 51 53 58 61 60 58 61 62 64 56 53 52 51 51 52 54 57 63 67 65 62 55 56
54 52 52 52 52 52 54 53 54 52 52 52 52 52 52 53 56 56 57 60 62 63 64 66 64 61 55 53 52 52 53 54 55 58 62 67 68 64
53 53 53 52 53 53 53 53 52 52 51 50 50 51 52 51 51 53 52 52 52 54 61 64 66 66 62 56 54 53 53 53 54 54 56 59 62 68
50 52 52 51 50 50 50 51 50 50 50 50 50 50 50 50 50 51 50 50 50 52 52 54 60 63 64 65 62 55 53 53 54 55 62 56 56 58
51 51 50 50 49 49 49 48 49 49 49 49 49 49 48 49 49 50 50 50 50 51 51 53 53 53 52 57 62 62 56 53 53 58 61 56 56 56
50 49 49 48 48 47 46 46 45 47 50 48 48 48 49 49 49 49 49 49 49 49 50 51 52 54 53 53 54 57 62 54 53 53 58 60 58 57
48 48 47 47 46 44 44 44 45 45 45 46 47 48 48 49 48 48 48 48 48 48 49 49 50 53 55 55 56 55 55 64 61 54 55 59 60 62
46 45 45 44 44 44 45 46 46 44 44 44 45 47 48 47 47 47 47 47 48 48 48 48 50 53 57 57 56 56 56 55 61 63 64 64 63 60
45 45 44 44 45 45 45 45 44 43 43 43 44 46 49 49 47 46 46 47 47 47 47 47 50 53 55 54 53 55 54 55 61 57 57 60 67 63
46 46 46 45 43 43 44 43 41 41 41 43 43 45 48 53 50 48 47 47 48 47 47 47 49 52 53 54 53 52 55 55 61 62 65 58 59 59
Lifted_Index
-7 -7 -7 -7 -6 -6 -5 -5 -5 -5 -5 -4 -4 -4 -5 -5 -5 -5 -5 -4 -4 -3 -2 -2 -1 -1 -1 -1 -1 -1 -1 -1 -1 -2 -3 -3 -4 -4
-8 -8 -7 -7 -6 -6 -5 -5 -5 -5 -5 -4 -4 -4 -5 -5 -5 -5 -5 -4 -4 -4 -3 -2 -1 -1 -1 -1 -1 -1 -1 -1 -1 -2 -2 -3 -3 -4
-9 -8 -8 -7 -6 -5 -4 -4 -5 -5 -5 -5 -4 -5 -5 -5 -5 -5 -5 -5 -4 -4 -3 -3 -2 -1 -0 -0 -0 -0 -0 -0 -1 -1 -2 -2 -2 -3
-9 -9 -7 -6 -4 -3 -3 -3 -3 -3 -4 -4 -4 -4 -4 -4 -4 -5 -5 -5 -4 -4 -3 -3 -2 -1 -0 0 0 0 -0 -0 -0 -1 -1 -2 -2 -2
-9 -7 -6 -5 -3 -2 -2 -1 -1 -1 -1 -1 -1 -2 -2 -3 -4 -4 -4 -4 -4 -3 -3 -3 -2 -1 -0 0 0 0 0 -0 -0 -0 -1 -1 -1 -1
-6 -5 -4 -3 -2 -2 -1 -1 -1 -0 0 0 0 0 -0 -1 -2 -2 -3 -3 -3 -3 -3 -2 -2 -1 -1 -0 0 0 -0 -0 -0 -0 -1 -1 -1 -1
-3 -3 -2 -1 -1 -0 0 -0 -1 -1 -0 0 0 1 0 0 -0 -0 -0 -1 -1 -2 -2 -2 -2 -2 -2 -1 -1 -1 -1 -1 -1 -1 -1 -1 -1 -1
-1 -0 0 1 1 1 1 1 0 -0 -0 0 0 0 0 0 1 1 1 1 1 0 -1 -2 -3 -3 -3 -3 -3 -2 -2 -2 -2 -2 -1 -1 -1 -1
1 1 2 2 2 1 1 1 1 0 0 0 0 0 1 1 1 2 2 2 2 2 1 -0 -2 -3 -4 -4 -4 -4 -3 -2 -2 -2 -2 -1 -1 -1
1 1 2 2 1 1 1 1 1 1 1 1 1 1 2 3 3 3 3 3 3 3 2 2 -0 -2 -3 -4 -4 -4 -4 -4 -3 -3 -2 -2 -1 -1
0 1 1 1 1 2 2 2 1 1 1 1 2 2 3 3 4 4 4 4 4 4 3 3 2 -0 -2 -3 -3 -4 -5 -5 -4 -4 -3 -3 -2 -2
0 0 1 2 2 2 3 3 2 2 3 3 3 3 3 4 4 4 4 4 4 4 4 4 3 2 0 -1 -2 -4 -5 -5 -5 -5 -4 -4 -3 -3
0 1 1 2 3 3 4 4 4 4 5 5 5 5 4 4 5 5 4 4 4 3 3 3 2 2 2 1 -1 -3 -3 -4 -4 -5 -5 -4 -4 -3
1 2 2 3 4 4 5 5 6 6 6 6 6 6 5 5 5 5 4 3 3 2 1 0 1 1 1 1 1 -0 -1 -2 -3 -4 -4 -4 -4 -4
3 4 5 5 6 6 6 7 7 7 7 6 6 6 6 6 6 5 4 3 2 1 0 -1 -1 -0 0 1 1 1 0 -1 -2 -3 -3 -4 -4 -4
6 6 7 7 7 7 8 8 8 8 7 7 7 7 7 7 7 6 6 5 4 2 1 -0 -1 -0 1 1 1 1 1 1 -0 -1 -2 -3 -3 -4
8 7 7 7 8 8 8 8 8 8 8 8 8 7 7 7 7 7 7 6 5 4 3 2 2 2 2 2 1 1 1 1 0 -1 -2 -2 -1 -2
8 7 7 7 8 8 9 9 9 9 9 9 8 8 8 8 8 7 7 5 5 4 5 4 4 4 4 3 2 1 1 1 1 -0 -1 -1 -1 -0
8 8 8 8 8 9 9 9 9 9 9 9 9 9 8 8 7 7 6 5 4 4 5 5 5 5 5 5 4 2 1 1 1 0 -1 -1 -1 -1
8 8 8 8 9 9 10 10 10 10 10 10 10 9 9 8 7 6 5 5 4 4 4 5 6 6 6 5 5 3 2 1 0 0 -1 -1 -1 -1
8 8 8 9 9 9 9 10 10 10 10 10 10 9 9 8 7 6 5 5 4 4 4 5 6 7 7 6 5 4 3 2 1 -0 -1 -1 -2 -2
8 8 9 9 9 9 9 9 10 10 10 10 10 9 9 8 7 6 5 5 4 4 4 5 7 8 8 6 6 5 4 2 1 -0 -1 -1 -2 -2
8 9 9 9 9 10 10 10 10 10 10 10 10 9 8 8 7 6 6 5 5 4 5 6 7 8 8 7 6 5 4 2 1 -0 -1 -1 -2 -2